#timestamp,LO_Frequency,Hit,StdDev 
1663660815.7,286047000.2,N
1663660835.6,286046999.7,N
1663660855.4,286046998.1,N
1663660875.2,286046998.6,N
1663660895.1,286046999.1,N
1663660896.0,286046999.1,N
1663660915.8,286046999.3,N
1663660935.7,286046999.2,N
1663660955.5,286046999.4,N
1663660975.3,286046999.6,N
1663660995.2,286046999.2,N
1663661015.0,286046998.8,N
1663661015.9,286046998.8,N
1663661035.7,286046999.3,N
1663661055.6,286046998.9,N
1663661075.4,286046997.1,Y
1663661095.3,286046997.6,P
1663661115.1,286046995.7,P
1663661135.9,286046993.3,P
1663661155.7,286046994.6,N
1663661175.5,286046996.3,N
1663661195.4,286046995.6,N
1663661215.2,286046995.5,N
1663661235.0,286046995.9,N
1663661235.9,286046995.9,N
1663661255.8,286046995.9,N
1663661275.6,286046996.4,N
1663661295.5,286046995.7,N
1663661315.3,286046993.5,Y
1663661335.1,286046998.6,P
1663661355.9,286046998.2,N
1663661375.7,286047000.6,N
1663661425.6,286046999.4,E
1663661435.5,286046998.2,N
1663661455.3,286046998.8,P
1663661475.2,286046998.6,P
1663661495.0,286046999.1,Y
1663661495.9,286046999.1,P
1663661515.8,286046998.5,P
1663661535.6,286046998.8,P
1663661555.4,286047001.2,Y
1663661575.3,286047000.1,P
1663661595.1,286047000.1,N
1663661615.8,286046999.8,N
1663661635.7,286046999.7,N
1663661655.5,286047000.1,N
1663661675.4,286047001.0,N
1663661695.2,286047000.9,N
1663661715.0,286047000.9,N
1663661715.9,286047000.9,N
1663661735.8,286047000.1,N
1663661755.6,286047001.2,N
1663661775.5,286047001.2,N
1663661795.3,286047000.5,N
1663661815.1,286047000.5,N
1663661835.9,286047000.8,N
1663661855.7,286046998.4,N
1663661875.5,286046998.9,N
1663661895.4,286046999.1,N
1663661915.2,286046996.5,Y
1663661935.1,286046996.5,P
1663661936.0,286046996.5,N
1663661955.8,286046999.2,N
1663661975.6,286046999.2,N
1663661995.5,286046996.7,N
1663662015.3,286046996.8,N
1663662035.2,286046997.0,N
1663662055.9,286046996.5,N
1663662075.7,286046997.2,N
1663662095.6,286046996.6,N
1663662115.4,286046996.8,N
1663662135.3,286046996.5,N
1663662155.1,286046996.6,N
1663662156.0,286046996.6,N
1663662175.8,286046996.8,N
1663662195.7,286046996.7,N
1663662215.5,286046996.6,Y
1663662235.3,286047000.8,P
1663662255.2,286047001.2,N
1663662275.0,286047000.6,N
1663662275.9,286047000.6,N
1663662295.8,286047000.3,N
1663662315.6,286047000.6,N
1663662335.4,286046999.9,N
1663662355.3,286046998.5,N
1663662375.1,286047001.1,N
1663662395.9,286046999.4,N
1663662415.7,286046999.6,N
1663662435.5,286046999.5,N
1663662455.4,286046999.3,N
1663662475.2,286046996.7,Y
1663662495.0,286046998.8,P
1663662495.9,286046998.8,N
1663662515.8,286046998.7,N
1663662535.6,286047000.3,N
1663662555.5,286047000.7,N
1663662575.3,286047001.1,N
1663662595.1,286047000.6,N
1663662615.9,286047000.9,N
1663662635.7,286046999.9,N
1663662655.5,286046998.2,N
1663662675.4,286046998.3,N
1663662695.2,286046999.2,N
1663662715.1,286046996.9,Y
1663662716.0,286046996.9,P
1663662735.8,286046999.1,N
1663662755.6,286046999.2,N
1663662775.5,286046998.8,N
1663662795.3,286046996.9,Y
1663662815.2,286047000.4,P
1663662835.9,286047002.4,N
1663662855.7,286047000.1,N
1663662875.6,286047002.5,N
1663662895.4,286047002.1,N
1663662915.2,286047002.7,N
1663662935.1,286047002.4,N
1663662936.0,286047002.4,N
1663662955.8,286047002.4,N
1663662975.6,286047000.1,N
1663662995.5,286047000.4,N
1663663015.3,286047001.0,N
1663663035.2,286047001.1,N
1663663055.9,286046999.3,N
1663663075.7,286046999.2,N
1663663095.6,286046999.6,N
1663663115.4,286046999.3,N
1663663135.2,286047001.2,N
1663663155.1,286046998.1,N
1663663156.0,286046998.1,N
1663663175.8,286047000.2,N
1663663195.7,286046999.9,N
1663663215.5,286047000.8,N
1663663235.3,286046999.8,N
1663663255.2,286047000.1,N
1663663275.0,286047000.2,N
1663663275.9,286047000.2,N
1663663295.8,286046999.9,N
1663663315.6,286046998.2,N
1663663335.4,286046998.4,N
1663663355.3,286046998.9,N
1663663375.1,286046998.4,N
1663663395.8,286046998.8,N
1663663415.7,286046996.9,N
1663663435.5,286046997.3,N
1663663455.4,286046996.9,N
1663663475.2,286046999.4,N
1663663495.0,286046996.5,N
1663663495.9,286046996.5,N
1663663515.8,286046997.1,N
1663663535.6,286046997.0,N
1663663555.5,286046999.3,N
1663663575.3,286046999.3,N
1663663595.1,286046999.5,N
1663663615.9,286046999.0,N
1663663635.7,286046998.7,N
1663663655.5,286046998.3,N
1663663675.4,286046998.5,N
1663663695.2,286046998.5,N
1663663715.1,286047000.8,N
1663663716.0,286047000.8,N
1663663735.8,286046998.6,N
1663663755.6,286047001.0,N
1663663775.5,286046998.1,N
1663663795.3,286046998.2,N
1663663815.2,286047000.7,N
1663663835.9,286047000.7,N
1663663855.7,286046998.2,N
1663663875.6,286046998.6,N
1663663895.4,286046999.9,N
1663663915.2,286046999.9,N
1663663935.1,286047002.0,N
1663663936.0,286047002.0,N
1663663955.8,286047001.6,N
1663663975.7,286047002.0,N
1663663995.5,286046999.7,N
1663664015.3,286046999.8,N
1663664035.2,286047002.1,N
1663664055.0,286046999.7,N
1663664055.9,286046999.7,N
1663664075.8,286047000.6,N
1663664095.6,286047000.6,N
1663664115.4,286047000.5,N
1663664135.3,286047001.1,N
1663664155.1,286047000.5,N
1663664175.8,286047002.7,N
1663664195.7,286047002.5,N
1663664215.5,286047000.5,N
1663664235.4,286046999.8,N
1663664255.2,286047001.9,N
1663664275.0,286047002.3,N
1663664275.9,286047002.3,N
1663664295.8,286047002.3,N
1663664315.6,286047002.5,N
1663664335.4,286047002.1,N
1663664355.3,286047002.6,N
1663664375.1,286047001.6,N
1663664395.9,286047002.8,N
